Regional Weather Roundup
Issued by NWS

Home | Current Version | Previous Version | Graphics & Text | Print | Product List | Glossary On
Versions: 1 2 3 4 5 6 7 8 9 10 11 12 13 14 15 16 17 18 19 20 21 22 23 24 25 26 27 28 29 30 31 32 33 34 35 36 37 38 39 40 41 42 43 44 45 46 47 48 49 50
000
ASUS43 KBIS 012210
RWRND

NORTH DAKOTA REGIONAL WEATHER ROUNDUP
NATIONAL WEATHER SERVICE BISMARCK ND
500 PM CDT FRI AUG 01 2014

NOTE: "FAIR" INDICATES FEW OR NO CLOUDS BELOW 12,000 FEET WITH NO
SIGNIFICANT WEATHER AND/OR OBSTRUCTIONS TO VISIBILITY.


NDZ001>003-009>011-017-012300-
NORTHWEST NORTH DAKOTA

CITY           SKY/WX    TMP DP  RH WIND       PRES   REMARKS
WILLISTON      SUNNY     85  53  33 VRB3      30.09S
MINOT          CLOUDY    79  61  53 NE7       30.07F
MINOT AFB      CLOUDY    81  59  47 E6        30.07F
$$

NDZ018>021-031>035-040>046-012300-
SOUTHWEST NORTH DAKOTA

CITY           SKY/WX    TMP DP  RH WIND       PRES   REMARKS
BISMARCK       CLOUDY    86  57  37 E10       30.04F
DICKINSON      MOSUNNY   83  60  45 E9        30.06F
GARRISON         N/A     77  64  64 SE3       30.06F
HETTINGER ARPT SUNNY     88  52  29 VRB7      30.05F
$$

NDZ004>008-012>016-024-026-027-054-012300-
NORTHEAST NORTH DAKOTA

CITY           SKY/WX    TMP DP  RH WIND       PRES   REMARKS
GRAND FORKS    MOSUNNY   82  58  43 CALM      30.06S
GRND FRKS AFB  MOSUNNY   81  61  50 VRB1      30.07F
DEVILS LAKE    MOSUNNY   81  57  44 SE6       30.08S
$$

NDZ022-023-025-028>030-036>039-047>053-012300-
SOUTHEAST NORTH DAKOTA

CITY           SKY/WX    TMP DP  RH WIND       PRES   REMARKS
FARGO          MOSUNNY   83  56  39 NE9       30.06S
JAMESTOWN      SUNNY     82  57  42 SE3       30.07F
$$



USA.gov is the U.S. government's official web portal to all federal, state and local government web resources and services.